マクノート彗星

C/2012 C1 ( McNaught )

English version
Home page
Updated on June 11, 2016

---------------------------------------------------------------------

・ プロフィール

発見日 2012年2月5日
発見光度 18.8等
発見者 Robert H. McNaught (Siding Spring)

・ 写真集

・ 軌道要素

Epoch 2013 Jan. 28.0 TT = JDT 2456320.5
T 2013 Feb. 4.54557 TT                                  MPC
q   4.8379583            (2000.0)            P               Q
z  +0.0007493      Peri.  279.89228     +0.18023534     +0.48587463
 +/-0.0000010      Node   300.63817     +0.30426399     -0.85437800
e   0.9963749      Incl.   96.27779     -0.93538155     -0.18429344
From 211 observations 2012 Feb. 5-2014 July 27, mean residual 0".4.

・ 星図

・ 光度変化

        m1 = 7.0 + 5 logΔ + 10.0 log r

---------------------------------------------------------------------

軌道要素はM.P.E.C. 2014-O54に掲載されたものです。
星図はステラナビゲータ Ver.8 (アストロアーツ) で作成したものです。
光度グラフはComet for Windowsで作成したものです。

---------------------------------------------------------------------

Copyright(C) Seiichi Yoshida (comet@aerith.net). All rights reserved.